Location: Newark
(34.6283°N, 36.0776°E)
Time: 19:13:05
(UTC+00:00)

Tiros 1 despin weight - Pass Details

Date: 21 September 2019
Orbit: 594 x 643 km, 48.2° (Epoch: 15 October)

Event Time Altitude Azimuth Distance (km) Brightness Sun altitude
Rises 10:57:57 0° 279° (W) 2,881 ? 50.2°
Reaches altitude 10° 11:00:52 10° 298° (WNW) 1,967 ? 49.9°
Maximum altitude 11:04:05 19° 344° (NNW) 1,464 ? 49.5°
Drops below altitude 10° 11:07:17 10° 29° (NNE) 1,948 ? 49.0°
Sets 11:10:09 0° 48° (NE) 2,844 ? 48.7°
